Weather History for HEAT - November, 2012

Change the Weather History Date:

Wednesday, November 14, 2012

  Actual Average Record
Temperature  
Mean Temperature 66 °F -  
Max Temperature 79 °F 73 °F - ()
Min Temperature 52 °F 48 °F - ()
Growing Degree Days 16 (Base 50)    
Moisture  
Dew Point 53 °F    
Average Humidity 65    
Maximum Humidity 100    
Minimum Humidity 28    
Precipitation  
Precipitation 0.00 in 0.00 in - ()
Sea Level Pressure  
Sea Level Pressure 30.03 in    
Wind  
Wind Speed 7 mph ()    
Max Wind Speed 16 mph    
Max Gust Speed -    
Visibility 4.7 miles    
Events      
T = Trace of Precipitation, MM = Missing Value Source: Averaged Metar Reports

Daily Weather History Graph

Daily Weather History Graph

Search for Another Location

Airport or City:

Trip Planner

Search our weather history database for the weather conditions in past years. The results will help you decide how hot, cold, wet, or windy it might be!

Date:

Astronomy

Nov. 14, 2012 Rise Set
Actual Time 6:15 AM EET 5:05 PM EET
Civil Twilight 5:50 AM EET 5:29 PM EET
Nautical Twilight 5:22 AM EET 5:57 PM EET
Astronomical Twilight 4:55 AM EET 6:25 PM EET
Moon 6:37 AM EET (11/14) 5:39 PM EET (11/14)
Length of Visible Light 11h 39m
Length of Day
10h 49m
New Moon, 0% of the Moon is Illuminated
Nov 14
New Moon
Nov 20
First Quarter
Nov 28
Full
Dec 6
Last Quarter
Dec 13
New

Hourly Weather History & Observations

Time (EET) Temp. Dew Point Humidity Pressure Visibility Wind Dir Wind Speed Gust Speed Precip Events Conditions
12:00 AM 59.0 °F 55.4 °F 88% 30.04 in 5.0 mi NW 8.1 mph - N/A   Unknown
2:00 AM 58 °F 54 °F 82% 30.06 in 5 mi NW 6.9 mph - -   Mist
2:00 AM 57.2 °F 53.6 °F 88% 30.04 in 5.0 mi NW 6.9 mph - N/A   Unknown
5:00 AM 55.4 °F 53.6 °F 94% 30.04 in 5.0 mi NW 6.9 mph - N/A   Unknown
6:00 AM 53.6 °F 51.8 °F 94% 30.04 in 5.0 mi WNW 3.5 mph - N/A   Unknown
7:00 AM 51.8 °F 51.8 °F 100% 30.04 in 3.7 mi NW 3.5 mph - N/A   Unknown
8:00 AM 57 °F 53 °F 80% 30.07 in 4 mi WNW 3.5 mph - -   Mist
8:00 AM 57.2 °F 51.8 °F 82% 30.06 in 3.7 mi WNW 3.5 mph - N/A   Unknown
9:00 AM 60.8 °F 53.6 °F 77% 30.09 in - NW 6.9 mph - N/A   Clear
10:00 AM 66.2 °F 51.8 °F 60% 30.06 in 3.7 mi NNE 9.2 mph - N/A   Unknown
11:00 AM 69.8 °F 51.8 °F 53% 30.06 in - North 9.2 mph - N/A   Clear
12:00 PM 73.4 °F 51.8 °F 47% 30.04 in - NNE 11.5 mph - N/A   Clear
1:00 PM 75.2 °F 51.8 °F 44% 30.01 in - NE 9.2 mph - N/A   Clear
2:00 PM 77 °F 50 °F 28% 29.98 in 6 mi NNE 9.2 mph - -  
2:00 PM 77.0 °F 50.0 °F 39% 30.01 in - NNE 9.2 mph - N/A   Clear
3:00 PM 77.0 °F 50.0 °F 39% 29.98 in - NE 8.1 mph - N/A   Clear
4:00 PM 78.8 °F 50.0 °F 36% 29.98 in - North 5.8 mph - N/A   Clear
5:00 PM 77.0 °F 51.8 °F 41% 29.98 in - North 5.8 mph - N/A   Clear
6:00 PM 73.4 °F 51.8 °F 47% 30.01 in - NW 11.5 mph - N/A   Clear
7:00 PM 71.6 °F 51.8 °F 50% 30.01 in - NNW 16.1 mph - N/A   Clear
8:00 PM 67 °F 54 °F 55% 30.02 in 6 mi NNW 12.7 mph - -  
8:00 PM 66.2 °F 55.4 °F 68% 30.04 in - NNW 12.7 mph - N/A   Clear
9:00 PM 64.4 °F 53.6 °F 68% 30.04 in - NNW 10.4 mph - N/A   Clear
10:00 PM 62.6 °F 53.6 °F 72% 30.04 in - NW 8.1 mph - N/A   Clear
11:00 PM 60.8 °F 55.4 °F 82% 30.04 in - NW 5.8 mph - N/A   Clear